Location: Newark
(52.2090°N, 4.1550°W)
Time: 05:54:48
(UTC+00:00)

N. Korean satellite - Visible Passes

Search period start: 14 October 2019 00:00
Search period end: 24 October 2019 00:00
Orbit: 455 x 508 km, 97.2° (Epoch: 13 October)

Date Brightness Start Highest point End Pass type
(mag) Time Alt. Az. Time Alt. Az. Time Alt. Az.
14 Oct 8.8 05:46:15 10° NNE 05:49:27 31° E 05:52:41 10° SSE visible
14 Oct 9.2 18:00:55 10° SSW 18:03:47 25° W 18:06:43 10° NW visible
15 Oct 9.9 05:21:31 10° NE 05:24:00 17° E 05:26:28 10° SE visible
17 Oct 7.8 06:03:34 10° NNE 06:07:03 49° E 06:10:34 10° S visible
17 Oct 9.9 18:19:09 10° SW 18:21:26 17° W 18:23:45 10° NW visible
18 Oct 9.1 05:38:33 10° NE 05:41:38 26° E 05:44:44 10° SSE visible
18 Oct 8.8 17:52:53 10° SSW 17:55:57 30° W 17:59:03 10° NNW visible
19 Oct 10.1 05:13:59 10° NE 05:16:09 15° E 05:18:19 10° SE visible
20 Oct 10.4 18:38:03 10° WSW 18:39:06 11° W 18:40:10 10° WNW visible
21 Oct 8.2 05:55:47 10° NNE 05:59:13 40° E 06:02:41 10° S visible
21 Oct 9.6 18:10:55 10° SW 18:13:32 20° W 18:16:11 10° NW visible
22 Oct 9.4 05:30:51 10° NE 05:33:46 22° E 05:36:43 10° SSE visible
22 Oct 8.3 17:44:51 10° SSW 17:48:04 37° W 17:51:20 10° NNW visible
23 Oct 10.2 05:06:31 10° ENE 05:08:15 13° E 05:09:58 10° ESE visible
